Flag for U.S.A. Weather past 2 weeks in Burbank, California, U.S.A.

Now
82 °F

Sunny.


Feels Like: 80 °F
Forecast: 58 / 82 °F
Wind: 6 mph from South

Location: Burbank-Glendale-Pasadena Airport

Current Time: Mar 29, 2015 at 1:28:37 PM

Latest Report: Mar 29, 2015 at 12:53 PM


Visibility: 10 mi

Pressure: 29.99 "Hg

Humidity: 23%

Dew point: 41 °F

Location of BurbankLocation

Historic Weather in Burbank — Graph

°F

Burbank temperature yesterday

Maximum temperature yesterday: 86 °F (at 2:53 PM)
Minimum temperature yesterday: 58 °F (at 6:53 AM)
Average temperature yesterday: 72 °F

Past Weeks' High & Low Weather Summary

 TemperatureHumidityPressure
High91 °F (Mar 26, 3:53 PM)90% (Mar 21, 5:53 AM)30.16 "Hg (Mar 21, 5:53 AM)
Low53 °F (Mar 23, 6:53 AM)11% (Mar 26, 12:53 PM)29.84 "Hg (Mar 16, 5:53 PM)
Average70 °F46%30.00 "Hg
* Reported Mar 14 11:53 AM — Mar 29 11:53 AM, Burbank, Weather by CustomWeather, © 2015

Note: Actual official high and low records may vary slightly from our data, if they occured in-between our weather recording intervals... More about our weather records

Advertising

Burbank weather history for previous 24 hours

 ConditionsComfort  
Time TempWeatherWind HumidityBarometerVisibility
11:53 AM
Sun, Mar 29
78 °FSunny.3 mph33%30.00 "Hg10 mi
10:53 AM74 °FSunny.5 mph38%30.01 "Hg10 mi
9:53 AM69 °FSunny.No wind42%30.02 "Hg10 mi
8:53 AM63 °FSunny.No wind60%30.01 "Hg10 mi
7:53 AM59 °FSunny.5 mph64%30.02 "Hg10 mi
6:53 AM58 °FClear.No wind62%30.01 "Hg10 mi
5:53 AM57 °FClear.No wind58%30.00 "Hg10 mi
4:53 AM58 °FClear.No wind51%29.99 "Hg10 mi
3:53 AM59 °FClear.No wind51%29.98 "Hg10 mi
2:53 AM63 °FClear.No wind40%29.98 "Hg10 mi
1:53 AM61 °FClear.No wind38%29.99 "Hg10 mi
12:53 AM63 °FClear.No wind37%30.01 "Hg10 mi
11:53 PM
Sat, Mar 28
65 °FClear.No wind33%30.01 "Hg10 mi
10:53 PM68 °FClear.No wind51%30.01 "Hg10 mi
9:53 PM69 °FClear.No wind59%30.01 "Hg10 mi
8:53 PM70 °FClear.3 mph55%29.99 "Hg10 mi
7:53 PM75 °FSunny.3 mph34%29.97 "Hg10 mi
6:53 PM79 °FSunny.6 mph24%29.96 "Hg10 mi
5:53 PM82 °FSunny.8 mph18%29.96 "Hg10 mi
4:53 PM84 °FSunny.8 mph12%29.96 "Hg10 mi
3:53 PM85 °FSunny.10 mph13%29.96 "Hg10 mi
2:53 PM86 °FSunny.9 mph17%29.97 "Hg10 mi
1:53 PM83 °FSunny.8 mph30%29.99 "Hg10 mi
Weather by CustomWeather, © 2015

See weather overviewHow to use our weather pages